StationID,Date,MaxTemp,MinTemp,Precipitation,Snowfall,SnowDepth
"UKW00035046","1950-07-14",71.96,55.04,0.00,0.00,0.00
"UKW00035046","1950-07-15",71.06,51.98,3.00,0.00,0.00
"UKW00035046","1950-07-16",69.98,53.96,160.00,0.00,0.00
"UKW00035046","1950-07-17",66.92,55.04,48.00,0.00,0.00
"UKW00035046","1950-07-18",69.98,53.96,3.00,0.00,0.00
"UKW00035046","1950-07-19",73.94,60.98,0.00,0.00,0.00
"UKW00035046","1950-07-20",78.08,57.02,0.00,0.00,0.00
"UKW00035046","1950-07-21",73.04,57.02,30.00,0.00,0.00
"UKW00035046","1950-07-22",71.96,53.96,13.00,0.00,0.00
"UKW00035046","1950-07-23",66.02,59.00,5.00,0.00,0.00
"UKW00035046","1950-07-24",68.00,53.96,0.00,0.00,0.00
"UKW00035046","1950-07-25",68.00,51.98,0.00,0.00,0.00
"UKW00035046","1950-07-26",69.98,51.98,0.00,0.00,0.00
"UKW00035046","1950-07-27",71.06,50.00,0.00,0.00,0.00
"UKW00035046","1950-07-28",69.98,51.08,94.00,0.00,0.00
"UKW00035046","1950-07-29",69.98,48.92,0.00,0.00,0.00
"UKW00035046","1950-07-30",69.98,53.06,0.00,0.00,0.00
"UKW00035046","1950-07-31",71.96,59.00,41.00,0.00,0.00
"UKW00035046","1950-08-01",69.98,55.04,0.00,0.00,0.00
"UKW00035046","1950-08-02",62.96,53.06,102.00,0.00,0.00
"UKW00035046","1950-08-03",64.04,51.08,28.00,0.00,0.00
"UKW00035046","1950-08-04",73.94,48.02,0.00,0.00,0.00
"UKW00035046","1950-08-05",75.02,53.96,0.00,0.00,0.00
"UKW00035046","1950-08-06",78.98,57.02,0.00,0.00,0.00
"UKW00035046","1950-08-07",77.00,57.92,0.00,0.00,0.00
"UKW00035046","1950-08-08",78.98,55.04,0.00,0.00,0.00
"UKW00035046","1950-08-09",71.06,57.92,23.00,0.00,0.00
"UKW00035046","1950-08-10",71.06,51.98,0.00,0.00,0.00
"UKW00035046","1950-08-11",69.98,51.98,0.00,0.00,0.00
"UKW00035046","1950-08-12",69.98,60.08,15.00,0.00,0.00
"UKW00035046","1950-08-13",73.04,51.08,0.00,0.00,0.00
"UKW00035046","1950-08-14",71.96,46.94,0.00,0.00,0.00
"UKW00035046","1950-08-15",66.02,60.98,64.00,0.00,0.00
"UKW00035046","1950-08-16",66.92,53.06,41.00,0.00,0.00
"UKW00035046","1950-08-17",66.02,50.00,0.00,0.00,0.00
"UKW00035046","1950-08-18",66.92,48.92,0.00,0.00,0.00
"UKW00035046","1950-08-19",66.92,51.98,13.00,0.00,0.00
"UKW00035046","1950-08-20",73.04,50.00,0.00,0.00,0.00
"UKW00035046","1950-08-21",75.92,57.92,30.00,0.00,0.00
"UKW00035046","1950-08-22",80.96,59.00,13.00,0.00,0.00
"UKW00035046","1950-08-23",73.04,53.06,10.00,0.00,0.00
"UKW00035046","1950-08-24",73.04,53.06,15.00,0.00,0.00
"UKW00035046","1950-08-25",69.08,53.96,0.00,0.00,0.00
"UKW00035046","1950-08-26",71.96,55.04,8.00,0.00,0.00
"UKW00035046","1950-08-27",66.92,48.02,43.00,0.00,0.00
"UKW00035046","1950-08-28",69.98,46.04,117.00,0.00,0.00
"UKW00035046","1950-08-29",66.92,48.92,20.00,0.00,0.00
"UKW00035046","1950-08-30",66.92,48.02,33.00,0.00,0.00
"UKW00035046","1950-08-31",66.92,55.94,28.00,0.00,0.00
"UKW00035046","1950-09-01",69.98,53.06,0.00,0.00,0.00
"UKW00035046","1950-09-02",64.94,48.02,33.00,0.00,0.00
"UKW00035046","1950-09-03",59.00,46.04,0.00,0.00,0.00
"UKW00035046","1950-09-04",71.06,55.94,0.00,0.00,0.00
"UKW00035046","1950-09-05",68.00,51.98,3.00,0.00,0.00
"UKW00035046","1950-09-06",62.96,46.94,33.00,0.00,0.00
"UKW00035046","1950-09-07",64.94,46.94,30.00,0.00,0.00
"UKW00035046","1950-09-08",64.94,48.02,3.00,0.00,0.00
"UKW00035046","1950-09-09",64.04,48.92,23.00,0.00,0.00
"UKW00035046","1950-09-10",69.08,55.94,8.00,0.00,0.00
"UKW00035046","1950-09-11",68.00,53.96,20.00,0.00,0.00
"UKW00035046","1950-09-12",62.96,55.04,0.00,0.00,0.00
"UKW00035046","1950-09-13",68.00,53.96,0.00,0.00,0.00
"UKW00035046","1950-09-14",66.02,53.96,25.00,0.00,0.00
"UKW00035046","1950-09-15",60.98,48.02,51.00,0.00,0.00
"UKW00035046","1950-09-16",62.96,44.96,0.00,0.00,0.00
"UKW00035046","1950-09-17",62.96,51.98,8.00,0.00,0.00
"UKW00035046","1950-09-18",62.06,48.92,0.00,0.00,0.00
"UKW00035046","1950-09-19",64.04,44.96,10.00,0.00,0.00
"UKW00035046","1950-09-20",62.06,46.04,20.00,0.00,0.00
"UKW00035046","1950-09-21",57.92,44.06,8.00,0.00,0.00
"UKW00035046","1950-09-22",59.00,42.98,5.00,0.00,0.00
"UKW00035046","1950-09-23",57.92,44.06,41.00,0.00,0.00
"UKW00035046","1950-09-24",60.08,51.08,183.00,0.00,0.00
"UKW00035046","1950-09-25",62.06,50.00,10.00,0.00,0.00
"UKW00035046","1950-09-26",55.04,48.92,89.00,0.00,0.00
"UKW00035046","1950-09-27",55.94,42.98,5.00,0.00,0.00
"UKW00035046","1950-09-28",69.08,53.96,5.00,0.00,0.00
"UKW00035046","1950-09-29",60.98,51.08,13.00,0.00,0.00
"UKW00035046","1950-09-30",60.98,53.96,66.00,0.00,0.00
"UKW00035046","1950-10-01",59.00,48.02,25.00,0.00,0.00
"UKW00035046","1950-10-02",59.00,48.02,8.00,0.00,0.00
"UKW00035046","1950-10-03",57.92,44.06,0.00,0.00,0.00
"UKW00035046","1950-10-04",64.04,53.96,0.00,0.00,0.00
"UKW00035046","1950-10-05",71.06,51.98,0.00,0.00,0.00
"UKW00035046","1950-10-06",64.94,53.96,0.00,0.00,0.00
"UKW00035046","1950-10-07",60.98,48.02,0.00,0.00,0.00
"UKW00035046","1950-10-08",60.08,42.98,10.00,0.00,0.00
"UKW00035046","1950-10-09",51.08,37.04,0.00,0.00,0.00
"UKW00035046","1950-10-10",55.94,46.94,5.00,0.00,0.00
"UKW00035046","1950-10-11",55.04,42.98,0.00,0.00,0.00
"UKW00035046","1950-10-12",62.06,44.96,0.00,0.00,0.00
"UKW00035046","1950-10-13",64.04,48.92,0.00,0.00,0.00
"UKW00035046","1950-10-14",57.02,44.06,18.00,0.00,0.00
"UKW00035046","1950-10-15",59.00,37.04,0.00,0.00,0.00
"UKW00035046","1950-10-16",60.08,42.98,0.00,0.00,0.00
"UKW00035046","1950-10-17",57.02,46.94,20.00,0.00,0.00
"UKW00035046","1950-10-18",62.96,46.94,10.00,0.00,0.00
"UKW00035046","1950-10-19",60.08,48.92,0.00,0.00,0.00
"UKW00035046","1950-10-20",59.00,46.94,0.00,0.00,0.00
"UKW00035046","1950-10-21",53.06,41.00,0.00,0.00,0.00
"UKW00035046","1950-10-22",53.96,46.94,0.00,0.00,0.00
"UKW00035046","1950-10-23",55.94,46.94,0.00,0.00,0.00
"UKW00035046","1950-10-24",55.04,41.00,0.00,0.00,0.00
"UKW00035046","1950-10-25",53.96,37.04,0.00,0.00,0.00
"UKW00035046","1950-10-26",50.00,33.08,0.00,0.00,0.00
"UKW00035046","1950-10-27",48.92,30.92,0.00,0.00,0.00
"UKW00035046","1950-10-28",46.94,28.04,0.00,0.00,0.00
"UKW00035046","1950-10-29",46.04,33.08,0.00,0.00,0.00
"UKW00035046","1950-10-30",46.04,30.02,41.00,0.00,0.00
"UKW00035046","1950-10-31",48.02,33.08,0.00,0.00,0.00
"UKW00035046","1950-11-01",50.00,33.08,0.00,0.00,0.00
"UKW00035046","1950-11-02",48.92,41.00,107.00,0.00,0.00
"UKW00035046","1950-11-03",48.02,42.98,28.00,0.00,0.00
"UKW00035046","1950-11-04",48.92,42.98,18.00,0.00,0.00
"UKW00035046","1950-11-05",48.02,37.04,8.00,0.00,0.00
"UKW00035046","1950-11-06",50.00,39.02,5.00,0.00,0.00
"UKW00035046","1950-11-07",46.94,33.98,0.00,0.00,0.00
"UKW00035046","1950-11-08",51.98,39.02,8.00,0.00,0.00
"UKW00035046","1950-11-09",51.98,42.98,33.00,0.00,0.00
"UKW00035046","1950-11-10",55.94,46.04,251.00,0.00,0.00
"UKW00035046","1950-11-11",53.06,37.94,0.00,0.00,0.00
"UKW00035046","1950-11-12",48.02,42.08,58.00,0.00,0.00
"UKW00035046","1950-11-13",48.92,39.92,0.00,0.00,0.00
"UKW00035046","1950-11-14",44.96,37.04,0.00,0.00,0.00
"UKW00035046","1950-11-15",44.06,35.06,0.00,0.00,0.00
"UKW00035046","1950-11-16",46.04,37.04,36.00,0.00,0.00
"UKW00035046","1950-11-17",46.94,33.98,0.00,0.00,0.00
"UKW00035046","1950-11-18",48.92,32.00,3.00,0.00,0.00
"UKW00035046","1950-11-19",46.94,37.94,66.00,0.00,0.00
"UKW00035046","1950-11-20",46.94,42.98,127.00,0.00,0.00
"UKW00035046","1950-11-21",48.02,42.98,150.00,0.00,0.00
"UKW00035046","1950-11-22",46.04,42.98,5.00,0.00,0.00
"UKW00035046","1950-11-23",44.96,42.08,15.00,0.00,0.00
"UKW00035046","1950-11-24",42.98,35.96,71.00,0.00,0.00
"UKW00035046","1950-11-25",37.04,30.02,0.00,0.00,0.00
"UKW00035046","1950-11-26",33.98,26.96,0.00,0.00,0.00
"UKW00035046","1950-11-27",48.02,24.08,20.00,0.00,0.00
"UKW00035046","1950-11-28",57.92,48.02,53.00,0.00,0.00
"UKW00035046","1950-11-29",51.08,39.92,30.00,0.00,0.00
"UKW00035046","1950-11-30",51.98,37.04,0.00,0.00,0.00
"UKW00035046","1950-12-01",51.08,41.00,56.00,0.00,0.00
"UKW00035046","1950-12-02",42.98,35.06,0.00,0.00,0.00
"UKW00035046","1950-12-03",35.96,28.04,3.00,3.00,0.00
"UKW00035046","1950-12-04",33.98,24.98,3.00,0.00,0.00
"UKW00035046","1950-12-05",33.08,24.08,8.00,15.00,25.00
"UKW00035046","1950-12-06",37.04,23.00,0.00,0.00,0.00
"UKW00035046","1950-12-07",44.06,35.06,53.00,0.00,0.00
"UKW00035046","1950-12-08",44.06,39.02,0.00,0.00,0.00
"UKW00035046","1950-12-09",44.96,35.96,0.00,0.00,0.00
"UKW00035046","1950-12-10",50.00,42.98,89.00,0.00,0.00
"UKW00035046","1950-12-11",42.98,33.98,0.00,0.00,0.00
"UKW00035046","1950-12-12",37.04,28.04,3.00,0.00,0.00
"UKW00035046","1950-12-13",33.98,26.96,0.00,0.00,0.00
"UKW00035046","1950-12-14",37.04,26.96,5.00,8.00,0.00
"UKW00035046","1950-12-15",30.92,24.98,0.00,0.00,0.00
"UKW00035046","1950-12-16",35.06,26.06,0.00,0.00,0.00
"UKW00035046","1950-12-17",39.02,26.96,23.00,53.00,0.00
"UKW00035046","1950-12-18",35.96,33.08,20.00,10.00,0.00
"UKW00035046","1950-12-19",35.96,33.08,0.00,0.00,0.00
"UKW00035046","1950-12-20",37.04,26.96,0.00,0.00,0.00
"UKW00035046","1950-12-21",35.06,21.92,0.00,0.00,0.00
"UKW00035046","1950-12-22",35.06,33.08,0.00,0.00,0.00
"UKW00035046","1950-12-23",37.04,33.98,0.00,0.00,0.00
"UKW00035046","1950-12-24",37.94,33.98,0.00,0.00,0.00
"UKW00035046","1950-12-25",37.94,30.02,5.00,0.00,0.00
"UKW00035046","1950-12-26",35.06,30.02,0.00,0.00,0.00
"UKW00035046","1950-12-27",37.04,33.08,0.00,0.00,0.00
"UKW00035046","1950-12-28",35.96,30.02,0.00,0.00,0.00
"UKW00035046","1950-12-29",33.98,24.08,0.00,0.00,0.00
"UKW00035046","1950-12-30",33.98,24.08,0.00,0.00,0.00
"UKW00035046","1950-12-31",35.06,30.02,0.00,0.00,0.00
"UKW00035046","1951-01-01",37.94,21.92,46.00,46.00,51.00
"UKW00035046","1951-01-02",35.96,32.00,76.00,0.00,25.00
"UKW00035046","1951-01-03",37.04,26.96,5.00,0.00,25.00
"UKW00035046","1951-01-04",42.08,26.96,5.00,0.00,0.00
"UKW00035046","1951-01-05",50.00,35.06,107.00,0.00,0.00
"UKW00035046","1951-01-06",51.08,35.06,76.00,0.00,0.00
"UKW00035046","1951-01-07",48.92,37.94,3.00,0.00,0.00
"UKW00035046","1951-01-08",48.02,39.92,51.00,0.00,0.00
"UKW00035046","1951-01-09",42.98,33.08,0.00,0.00,0.00
"UKW00035046","1951-01-10",42.08,33.98,20.00,0.00,0.00
"UKW00035046","1951-01-11",48.92,37.04,33.00,0.00,0.00
"UKW00035046","1951-01-12",44.06,35.06,18.00,0.00,0.00
"UKW00035046","1951-01-13",42.08,35.96,3.00,0.00,0.00
"UKW00035046","1951-01-14",42.98,35.06,0.00,0.00,0.00
"UKW00035046","1951-01-15",41.00,35.06,0.00,0.00,0.00
"UKW00035046","1951-01-16",44.06,33.98,25.00,0.00,0.00
"UKW00035046","1951-01-17",53.06,44.06,10.00,0.00,0.00
"UKW00035046","1951-01-18",48.02,37.04,8.00,0.00,0.00
"UKW00035046","1951-01-19",51.98,37.04,15.00,0.00,0.00
"UKW00035046","1951-01-20",51.08,48.02,0.00,0.00,0.00
"UKW00035046","1951-01-21",50.00,44.96,0.00,0.00,0.00
"UKW00035046","1951-01-22",46.94,39.92,0.00,0.00,0.00
"UKW00035046","1951-01-23",46.04,35.06,0.00,0.00,0.00
"UKW00035046","1951-01-24",44.06,37.04,0.00,0.00,0.00
"UKW00035046","1951-01-25",41.00,39.02,0.00,0.00,0.00
"UKW00035046","1951-01-26",42.98,37.04,61.00,0.00,0.00
"UKW00035046","1951-01-27",39.92,26.06,0.00,0.00,0.00
"UKW00035046","1951-01-28",39.02,21.92,0.00,0.00,0.00
"UKW00035046","1951-01-29",28.94,23.00,0.00,0.00,0.00
"UKW00035046","1951-01-30",37.04,21.02,0.00,0.00,0.00
"UKW00035046","1951-01-31",39.02,30.02,0.00,0.00,0.00
"UKW00035046","1951-02-01",41.00,30.92,0.00,0.00,0.00
"UKW00035046","1951-02-02",42.08,37.04,8.00,0.00,0.00
"UKW00035046","1951-02-03",39.02,32.00,109.00,0.00,0.00
"UKW00035046","1951-02-04",42.98,32.00,64.00,0.00,0.00
"UKW00035046","1951-02-05",46.04,35.96,3.00,0.00,0.00
"UKW00035046","1951-02-06",42.08,33.08,0.00,0.00,0.00
"UKW00035046","1951-02-07",44.06,32.00,0.00,0.00,0.00
"UKW00035046","1951-02-08",51.08,39.02,28.00,0.00,0.00
"UKW00035046","1951-02-09",42.98,35.96,18.00,0.00,0.00
"UKW00035046","1951-02-10",44.06,28.94,0.00,0.00,0.00
"UKW00035046","1951-02-11",41.00,35.06,104.00,0.00,0.00
"UKW00035046","1951-02-12",48.92,30.92,0.00,0.00,0.00
"UKW00035046","1951-02-13",44.06,30.92,13.00,0.00,0.00
"UKW00035046","1951-02-14",39.02,35.06,61.00,0.00,0.00
"UKW00035046","1951-02-15",39.92,28.94,0.00,0.00,0.00
"UKW00035046","1951-02-16",44.96,33.08,33.00,0.00,0.00
"UKW00035046","1951-02-17",44.96,35.06,91.00,0.00,0.00
"UKW00035046","1951-02-18",46.94,35.06,13.00,0.00,0.00
"UKW00035046","1951-02-19",46.04,35.96,28.00,0.00,0.00
"UKW00035046","1951-02-20",44.96,33.98,61.00,0.00,0.00
"UKW00035046","1951-02-21",42.08,35.06,5.00,0.00,0.00
"UKW00035046","1951-02-22",42.08,33.08,0.00,0.00,0.00
"UKW00035046","1951-02-23",46.04,33.08,0.00,0.00,0.00
"UKW00035046","1951-02-24",42.98,33.08,5.00,0.00,0.00
"UKW00035046","1951-02-25",44.06,32.00,15.00,0.00,0.00
"UKW00035046","1951-02-26",39.92,26.96,28.00,0.00,0.00
"UKW00035046","1951-02-27",44.96,32.00,0.00,0.00,0.00
"UKW00035046","1951-02-28",44.96,28.04,0.00,0.00,0.00
"UKW00035046","1951-03-01",46.94,30.02,0.00,0.00,0.00
"UKW00035046","1951-03-02",46.04,32.00,0.00,0.00,0.00
"UKW00035046","1951-03-03",42.08,32.00,0.00,0.00,0.00
"UKW00035046","1951-03-04",48.02,30.02,0.00,0.00,0.00
"UKW00035046","1951-03-05",46.04,24.98,3.00,0.00,0.00
"UKW00035046","1951-03-06",44.06,35.96,23.00,0.00,0.00
"UKW00035046","1951-03-07",51.08,35.96,0.00,0.00,0.00
"UKW00035046","1951-03-08",39.92,35.06,3.00,0.00,0.00
"UKW00035046","1951-03-09",37.04,33.98,38.00,0.00,0.00
"UKW00035046","1951-03-10",39.02,33.98,20.00,0.00,0.00
"UKW00035046","1951-03-11",42.98,35.96,25.00,0.00,0.00
"UKW00035046","1951-03-12",46.94,35.06,3.00,0.00,0.00
"UKW00035046","1951-03-13",51.98,39.02,56.00,0.00,0.00
"UKW00035046","1951-03-14",46.94,42.98,99.00,0.00,0.00
"UKW00035046","1951-03-15",50.00,33.98,0.00,0.00,0.00
"UKW00035046","1951-03-16",51.08,33.98,97.00,0.00,0.00
"UKW00035046","1951-03-17",55.94,46.04,56.00,0.00,0.00
"UKW00035046","1951-03-18",51.08,41.00,30.00,0.00,0.00
"UKW00035046","1951-03-19",42.08,35.06,5.00,0.00,0.00
"UKW00035046","1951-03-20",42.08,28.94,0.00,0.00,0.00
"UKW00035046","1951-03-21",44.96,26.06,46.00,0.00,0.00
"UKW00035046","1951-03-22",57.02,39.02,76.00,0.00,0.00
"UKW00035046","1951-03-23",51.08,35.06,142.00,0.00,0.00
"UKW00035046","1951-03-24",44.96,33.98,38.00,0.00,0.00
"UKW00035046","1951-03-25",44.96,30.92,8.00,0.00,0.00
"UKW00035046","1951-03-26",46.94,37.94,58.00,0.00,0.00
"UKW00035046","1951-03-27",42.98,33.08,15.00,0.00,0.00
"UKW00035046","1951-03-28",46.04,32.00,0.00,0.00,0.00
"UKW00035046","1951-03-29",44.06,28.94,0.00,0.00,0.00
"UKW00035046","1951-03-30",44.06,26.96,0.00,0.00,0.00
"UKW00035046","1951-03-31",44.06,24.08,53.00,0.00,0.00
"UKW00035046","1951-04-01",50.00,37.94,33.00,0.00,0.00
"UKW00035046","1951-04-02",48.02,35.96,102.00,0.00,0.00
"UKW00035046","1951-04-03",50.00,35.06,13.00,0.00,0.00
"UKW00035046","1951-04-04",53.06,39.92,46.00,0.00,0.00
"UKW00035046","1951-04-05",53.06,35.96,0.00,0.00,0.00
"UKW00035046","1951-04-06",55.04,39.92,97.00,0.00,0.00
"UKW00035046","1951-04-07",48.92,37.94,79.00,0.00,0.00
"UKW00035046","1951-04-08",50.00,37.04,61.00,0.00,0.00
"UKW00035046","1951-04-09",50.00,39.92,135.00,0.00,0.00
"UKW00035046","1951-04-10",48.92,35.06,66.00,0.00,0.00
"UKW00035046","1951-04-11",48.92,30.92,0.00,0.00,0.00
"UKW00035046","1951-04-12",53.06,42.08,8.00,0.00,0.00
"UKW00035046","1951-04-13",51.08,37.94,122.00,0.00,0.00
"UKW00035046","1951-04-14",46.94,33.98,0.00,0.00,0.00
"UKW00035046","1951-04-15",51.08,32.00,0.00,0.00,0.00
"UKW00035046","1951-04-16",51.98,39.02,8.00,0.00,0.00
"UKW00035046","1951-04-17",55.04,33.08,0.00,0.00,0.00
"UKW00035046","1951-04-18",55.04,33.08,0.00,0.00,0.00
"UKW00035046","1951-04-19",48.92,37.04,0.00,0.00,0.00
"UKW00035046","1951-04-20",55.04,35.06,0.00,0.00,0.00
"UKW00035046","1951-04-21",50.00,32.00,0.00,0.00,0.00
"UKW00035046","1951-04-22",53.06,33.08,0.00,0.00,0.00
"UKW00035046","1951-04-23",64.94,33.08,0.00,0.00,0.00
"UKW00035046","1951-04-24",71.96,39.02,0.00,0.00,0.00
"UKW00035046","1951-04-25",71.06,39.02,0.00,0.00,0.00
"UKW00035046","1951-04-26",51.08,37.94,0.00,0.00,0.00
"UKW00035046","1951-04-27",48.92,35.96,5.00,0.00,0.00
"UKW00035046","1951-04-28",44.96,33.08,46.00,0.00,0.00
"UKW00035046","1951-04-29",44.06,28.04,38.00,0.00,0.00
"UKW00035046","1951-04-30",51.98,28.04,3.00,0.00,0.00
"UKW00035046","1951-05-01",55.94,37.94,18.00,0.00,0.00
"UKW00035046","1951-05-02",55.94,41.00,8.00,0.00,0.00
"UKW00035046","1951-05-03",59.00,39.02,15.00,0.00,0.00
"UKW00035046","1951-05-04",53.96,41.00,86.00,0.00,0.00
"UKW00035046","1951-05-05",57.02,37.94,13.00,0.00,0.00
"UKW00035046","1951-05-06",57.02,44.96,0.00,0.00,0.00
"UKW00035046","1951-05-07",48.02,39.92,0.00,0.00,0.00
"UKW00035046","1951-05-08",46.04,39.02,3.00,0.00,0.00
"UKW00035046","1951-05-09",50.00,42.08,5.00,0.00,0.00
"UKW00035046","1951-05-10",55.04,41.00,0.00,0.00,0.00
"UKW00035046","1951-05-11",55.94,39.02,0.00,0.00,0.00
"UKW00035046","1951-05-12",62.06,32.00,0.00,0.00,0.00
"UKW00035046","1951-05-13",53.96,42.98,18.00,0.00,0.00
"UKW00035046","1951-05-14",48.02,41.00,13.00,0.00,0.00
"UKW00035046","1951-05-15",55.94,46.04,43.00,0.00,0.00
"UKW00035046","1951-05-16",51.08,42.98,13.00,0.00,0.00
"UKW00035046","1951-05-17",53.06,35.06,5.00,0.00,0.00
"UKW00035046","1951-05-18",60.98,44.96,51.00,0.00,0.00
"UKW00035046","1951-05-19",66.02,46.94,0.00,0.00,0.00
"UKW00035046","1951-05-20",64.04,50.00,132.00,0.00,0.00
"UKW00035046","1951-05-21",62.06,44.96,8.00,0.00,0.00
"UKW00035046","1951-05-22",60.98,42.08,58.00,0.00,0.00
"UKW00035046","1951-05-23",66.92,48.92,0.00,0.00,0.00
"UKW00035046","1951-05-24",69.98,51.98,53.00,0.00,0.00
"UKW00035046","1951-05-25",69.08,51.98,0.00,0.00,0.00
"UKW00035046","1951-05-26",62.96,46.94,38.00,0.00,0.00
"UKW00035046","1951-05-27",60.08,48.02,3.00,0.00,0.00
"UKW00035046","1951-05-28",62.06,44.96,0.00,0.00,0.00
"UKW00035046","1951-05-29",62.96,46.04,0.00,0.00,0.00
"UKW00035046","1951-05-30",60.08,44.96,0.00,0.00,0.00
"UKW00035046","1951-05-31",62.06,42.08,0.00,0.00,0.00
"UKW00035046","1951-06-01",66.02,44.96,0.00,0.00,0.00
"UKW00035046","1951-06-02",62.06,41.00,0.00,0.00,0.00
"UKW00035046","1951-06-03",68.00,42.08,0.00,0.00,0.00
"UKW00035046","1951-06-04",68.00,44.96,0.00,0.00,0.00
"UKW00035046","1951-06-05",71.06,44.96,0.00,0.00,0.00
"UKW00035046","1951-06-06",71.06,44.96,0.00,0.00,0.00
"UKW00035046","1951-06-07",59.00,44.06,0.00,0.00,0.00
"UKW00035046","1951-06-08",64.04,42.98,0.00,0.00,0.00
"UKW00035046","1951-06-09",66.92,46.04,0.00,0.00,0.00
"UKW00035046","1951-06-10",66.02,50.00,36.00,0.00,0.00
"UKW00035046","1951-06-11",69.98,50.00,0.00,0.00,0.00
"UKW00035046","1951-06-12",69.98,57.92,38.00,0.00,0.00
"UKW00035046","1951-06-13",66.92,55.94,0.00,0.00,0.00
"UKW00035046","1951-06-14",69.98,59.00,0.00,0.00,0.00
"UKW00035046","1951-06-15",71.06,51.08,0.00,0.00,0.00
"UKW00035046","1951-06-16",71.06,48.92,0.00,0.00,0.00
"UKW00035046","1951-06-17",69.98,46.04,0.00,0.00,0.00
"UKW00035046","1951-06-18",66.92,44.06,0.00,0.00,0.00
"UKW00035046","1951-06-19",66.92,46.04,5.00,0.00,0.00
"UKW00035046","1951-06-20",69.98,46.94,0.00,0.00,0.00
"UKW00035046","1951-06-21",73.94,46.94,0.00,0.00,0.00
"UKW00035046","1951-06-22",66.92,55.94,64.00,0.00,0.00
"UKW00035046","1951-06-23",57.02,55.04,0.00,0.00,0.00
"UKW00035046","1951-06-24",66.92,51.08,0.00,0.00,0.00
"UKW00035046","1951-06-25",64.94,50.00,13.00,0.00,0.00
"UKW00035046","1951-06-26",53.96,48.02,193.00,0.00,0.00
"UKW00035046","1951-06-27",59.00,51.98,8.00,0.00,0.00
"UKW00035046","1951-06-28",62.96,50.00,5.00,0.00,0.00
"UKW00035046","1951-06-29",66.92,46.94,0.00,0.00,0.00
"UKW00035046","1951-06-30",68.00,42.08,0.00,0.00,0.00
"UKW00035046","1951-07-01",78.08,50.00,0.00,0.00,0.00
"UKW00035046","1951-07-02",73.04,55.94,0.00,0.00,0.00
"UKW00035046","1951-07-03",75.02,53.96,0.00,0.00,0.00
"UKW00035046","1951-07-04",64.04,48.02,0.00,0.00,0.00
"UKW00035046","1951-07-05",64.04,42.98,0.00,0.00,0.00
"UKW00035046","1951-07-06",71.96,55.94,0.00,0.00,0.00
"UKW00035046","1951-07-07",75.02,53.96,0.00,0.00,0.00
"UKW00035046","1951-07-08",71.06,53.96,18.00,0.00,0.00
"UKW00035046","1951-07-09",71.96,51.98,0.00,0.00,0.00
"UKW00035046","1951-07-10",78.98,60.08,0.00,0.00,0.00
"UKW00035046","1951-07-11",75.02,57.92,0.00,0.00,0.00
"UKW00035046","1951-07-12",68.00,53.96,89.00,0.00,0.00
"UKW00035046","1951-07-13",69.08,51.98,13.00,0.00,0.00
"UKW00035046","1951-07-14",66.92,46.94,0.00,0.00,0.00
"UKW00035046","1951-07-15",68.00,48.02,0.00,0.00,0.00
"UKW00035046","1951-07-16",75.02,44.96,0.00,0.00,0.00
"UKW00035046","1951-07-17",78.08,51.08,0.00,0.00,0.00
"UKW00035046","1951-07-18",69.08,57.92,0.00,0.00,0.00
"UKW00035046","1951-07-19",77.00,55.94,0.00,0.00,0.00
"UKW00035046","1951-07-20",71.06,55.94,0.00,0.00,0.00
"UKW00035046","1951-07-21",77.00,51.98,0.00,0.00,0.00
"UKW00035046","1951-07-22",77.00,51.08,25.00,0.00,0.00
"UKW00035046","1951-07-23",62.06,53.96,8.00,0.00,0.00
"UKW00035046","1951-07-24",64.04,48.02,0.00,0.00,0.00
"UKW00035046","1951-07-25",71.96,46.94,0.00,0.00,0.00
"UKW00035046","1951-07-26",75.02,55.04,0.00,0.00,0.00
"UKW00035046","1951-07-27",71.96,60.08,0.00,0.00,0.00
"UKW00035046","1951-07-28",73.94,55.94,0.00,0.00,0.00
"UKW00035046","1951-07-29",73.94,48.92,0.00,0.00,0.00
"UKW00035046","1951-07-30",75.02,42.08,0.00,0.00,0.00
"UKW00035046","1951-07-31",73.94,62.06,61.00,0.00,0.00
"UKW00035046","1951-08-01",73.94,57.92,0.00,0.00,0.00
"UKW00035046","1951-08-02",77.00,48.02,0.00,0.00,0.00
"UKW00035046","1951-08-03",78.98,51.98,0.00,0.00,0.00
"UKW00035046","1951-08-04",68.00,53.96,23.00,0.00,0.00
"UKW00035046","1951-08-05",71.06,53.96,0.00,0.00,0.00
"UKW00035046","1951-08-06",71.06,57.02,122.00,0.00,0.00
"UKW00035046","1951-08-07",68.00,53.96,33.00,0.00,0.00
"UKW00035046","1951-08-08",69.08,50.00,94.00,0.00,0.00
"UKW00035046","1951-08-09",68.00,48.92,5.00,0.00,0.00
"UKW00035046","1951-08-10",66.02,48.92,0.00,0.00,0.00
"UKW00035046","1951-08-11",62.06,48.92,13.00,0.00,0.00
"UKW00035046","1951-08-12",60.98,46.94,41.00,0.00,0.00
"UKW00035046","1951-08-13",64.04,46.94,0.00,0.00,0.00
"UKW00035046","1951-08-14",62.96,50.00,0.00,0.00,0.00
"UKW00035046","1951-08-15",66.02,42.98,0.00,0.00,0.00
"UKW00035046","1951-08-16",66.92,48.92,0.00,0.00,0.00
"UKW00035046","1951-08-17",64.04,48.92,15.00,0.00,0.00
"UKW00035046","1951-08-18",71.06,44.06,0.00,0.00,0.00
"UKW00035046","1951-08-19",69.98,53.96,43.00,0.00,0.00
"UKW00035046","1951-08-20",69.08,50.00,0.00,0.00,0.00
"UKW00035046","1951-08-21",71.06,48.02,0.00,0.00,0.00
"UKW00035046","1951-08-22",69.08,53.06,36.00,0.00,0.00
"UKW00035046","1951-08-23",68.00,44.96,0.00,0.00,0.00
"UKW00035046","1951-08-24",66.92,51.98,0.00,0.00,0.00
"UKW00035046","1951-08-25",64.04,51.08,0.00,0.00,0.00
"UKW00035046","1951-08-26",66.92,55.04,76.00,0.00,0.00
"UKW00035046","1951-08-27",68.00,51.08,58.00,0.00,0.00
"UKW00035046","1951-08-28",69.98,55.04,8.00,0.00,0.00
"UKW00035046","1951-08-29",69.98,57.92,0.00,0.00,0.00
"UKW00035046","1951-08-30",66.02,51.08,58.00,0.00,0.00
"UKW00035046","1951-08-31",66.02,50.00,10.00,0.00,0.00
"UKW00035046","1951-09-01",64.94,48.02,5.00,0.00,0.00
"UKW00035046","1951-09-02",66.92,46.94,0.00,0.00,0.00
"UKW00035046","1951-09-03",71.06,44.06,30.00,0.00,0.00
"UKW00035046","1951-09-04",78.08,57.02,0.00,0.00,0.00
"UKW00035046","1951-09-05",69.98,60.98,0.00,0.00,0.00
"UKW00035046","1951-09-06",71.96,59.00,3.00,0.00,0.00
"UKW00035046","1951-09-07",64.94,55.04,157.00,0.00,0.00
"UKW00035046","1951-09-08",64.94,51.08,0.00,0.00,0.00
"UKW00035046","1951-09-09",62.06,51.98,0.00,0.00,0.00
"UKW00035046","1951-09-10",69.08,53.96,0.00,0.00,0.00
"UKW00035046","1951-09-11",73.04,60.98,0.00,0.00,0.00
"UKW00035046","1951-09-12",75.02,59.00,18.00,0.00,0.00
"UKW00035046","1951-09-13",71.06,53.06,76.00,0.00,0.00
"UKW00035046","1951-09-14",66.92,51.08,0.00,0.00,0.00
"UKW00035046","1951-09-15",64.04,50.00,10.00,0.00,0.00
"UKW00035046","1951-09-16",59.00,44.96,13.00,0.00,0.00
"UKW00035046","1951-09-17",60.08,44.96,0.00,0.00,0.00